(295716) = 2004 TD325 = 2008 UP35

Discovered at Mount Lemmon on 2008-10-20 by Mt. Lemmon Survey.

Orbit

Orbit type: Main Belt

Note: WebGL enabled browser required.

epoch2022-01-21.0
epoch JD2459600.5
perihelion date2018-09-27.71480
perihelion JD2458389.21480
argument of perihelion (°)348.52796
ascending node (°)203.27027
inclination (°)3.23629
eccentricity0.1336173
perihelion distance (AU)2.2074787
Tisserand w.r.t. Jupiter3.4
ΔV w.r.t. Earth (km/sec)9.4
semimajor axis (AU)2.5479255
mean anomaly (°)293.54194
mean daily motion (°/day)0.24233930
aphelion distance (AU)2.888
period (years)4.07
P-vector [x]-0.97874841
P-vector [y]-0.18339472
P-vector [z]-0.09174930
Q-vector [x]0.20384829
Q-vector [y]-0.91878922
Q-vector [z]-0.33804178
absolute magnitude17.29
phase slope0.15
uncertainty0
referenceMPO 697069
observations used157
oppositions11
arc length (days)7253
first opposition used2002
last opposition used2022
residual rms (arc-secs)0.83
perturbers coarse indicatorM-v
perturbers precise indicator003Ek
first observation date used2002-03-05.0
last observation date used2022-01-12.0
computer namePan
JD of orbit computation2456731.591632
perihelion JD uncertainty (days)2.7065E-04
argument of perihelion uncertainty (°)1.0212E-04
ascending node uncertainty (°)9.4720E-05
inclination uncertainty (°)5.2945E-06
eccentricity uncertainty 3.3633E-07
perihelion distance uncertainty (AU)8.7358E-07
Minimum Orbit Intersection Distances (in AU)
for orbit epoch: 2458200.5, reference: MPO433905
Mercury1.78681
Venus1.49095
Earth1.20984
Mars0.57107
Jupiter2.0662
Saturn6.40046
Uranus15.9648
Neptune26.9887

Observations

163 total observations over interval: 2002 03 05.189770 – 2022 01 12.402579
These data are available for download (format description).

Date (UT) J2000 RA J2000 Dec Magn Location Ref
2002 03 05.189770 10 08 19.968 +07 03 16.20 20.20 V 645 – Apache Point-Sloan Digital Sky Survey MPS 313498
2002 03 05.193242 10 08 19.793 +07 03 17.52 20.93   645 – Apache Point-Sloan Digital Sky Survey MPS 313498
2002 03 13.20843 10 02 19.47 +07 52 29.9 19.9   704 – Lincoln Laboratory ETS, New Mexico MPS 313498
2002 03 13.23550 10 02 18.32 +07 52 39.2 19.8   704 – Lincoln Laboratory ETS, New Mexico MPS 313498
2002 03 13.24904 10 02 17.77 +07 52 43.8 19.8   704 – Lincoln Laboratory ETS, New Mexico MPS 313498
2004 10 12.34116 02 18 59.17 +13 13 04.8 21.1 V 691 – Steward Observatory, Kitt Peak-Spacewatch MPS 118702
2004 10 12.36802 02 18 57.86 +13 12 56.4 21.5 V 691 – Steward Observatory, Kitt Peak-Spacewatch MPS 118702
2004 10 12.39499 02 18 56.51 +13 12 48.0 21.3 V 691 – Steward Observatory, Kitt Peak-Spacewatch MPS 118702
2004 10 15.33377 02 16 31.70 +12 57 18.2 21.1 V 691 – Steward Observatory, Kitt Peak-Spacewatch MPS 118702
2004 10 15.36091 02 16 30.30 +12 57 09.5 21.2 V 691 – Steward Observatory, Kitt Peak-Spacewatch MPS 118702
2004 10 15.38822 02 16 28.87 +12 57 00.6 21.2 V 691 – Steward Observatory, Kitt Peak-Spacewatch MPS 118702
2006 02 02.23076 09 46 14.81 +08 09 48.7 19.9 V 691 – Steward Observatory, Kitt Peak-Spacewatch MPS 266501
2006 02 02.24807 09 46 13.91 +08 09 53.8 20.4 V 691 – Steward Observatory, Kitt Peak-Spacewatch MPS 266501
2006 02 02.26537 09 46 12.98 +08 09 58.5 20.5 V 691 – Steward Observatory, Kitt Peak-Spacewatch MPS 266501
2008 10 20.28511 01 44 47.97 +10 26 24.4 20.8 V G96 – Mt. Lemmon Survey MPS 261826
2008 10 20.29003 01 44 47.68 +10 26 22.2 20.9 V G96 – Mt. Lemmon Survey MPS 261826
2008 10 20.29491 01 44 47.43 +10 26 19.9 20.2 V G96 – Mt. Lemmon Survey MPS 261826
2008 10 20.29980 01 44 47.14 +10 26 18.6 20.7 V G96 – Mt. Lemmon Survey MPS 261826
2008 10 21.15659 01 44 01.93 +10 21 09.2 21.1 V 691 – Steward Observatory, Kitt Peak-Spacewatch MPS 261826
2008 10 21.17421 01 44 00.98 +10 21 02.9 21.7 V 691 – Steward Observatory, Kitt Peak-Spacewatch MPS 261826
2008 10 21.19185 01 44 00.02 +10 20 56.3 21.1 V 691 – Steward Observatory, Kitt Peak-Spacewatch MPS 261826
2008 10 28.24632 01 37 50.08 +09 38 35.1 20.9 V G96 – Mt. Lemmon Survey MPS 261826
2008 10 28.25230 01 37 49.76 +09 38 33.1 21.3 V G96 – Mt. Lemmon Survey MPS 261826
2008 10 28.25837 01 37 49.47 +09 38 31.0 21.2 V G96 – Mt. Lemmon Survey MPS 261826
2008 10 28.26439 01 37 49.15 +09 38 28.6 21.3 V G96 – Mt. Lemmon Survey MPS 261826
2008 11 23.16012 01 20 24.64 +07 33 42.3 22.4 V G96 – Mt. Lemmon Survey MPS 266501
2008 11 23.16409 01 20 24.57 +07 33 41.4 21.4 V G96 – Mt. Lemmon Survey MPS 266501
2008 11 23.16804 01 20 24.50 +07 33 40.9 21.5 V G96 – Mt. Lemmon Survey MPS 266501
2008 11 23.17194 01 20 24.39 +07 33 40.3 22.2 V G96 – Mt. Lemmon Survey MPS 266501
2008 11 24.20625 01 19 58.94 +07 30 23.2 21.8 V G96 – Mt. Lemmon Survey MPS 266501
2008 11 24.21419 01 19 58.76 +07 30 22.6 22.0 V G96 – Mt. Lemmon Survey MPS 266501
2008 11 24.22218 01 19 58.58 +07 30 20.4 22.0 V G96 – Mt. Lemmon Survey MPS 266501
2008 11 24.23023 01 19 58.40 +07 30 18.9 21.8 V G96 – Mt. Lemmon Survey MPS 266501
2010 01 11.28108 09 18 33.35 +10 18 54.9 20.7 V 691 – Steward Observatory, Kitt Peak-Spacewatch MPS 310299
2010 01 11.30268 09 18 32.55 +10 18 57.4 20.4 V 691 – Steward Observatory, Kitt Peak-Spacewatch MPS 310299
2010 01 11.32042 09 18 31.84 +10 18 59.1 20.5 V 691 – Steward Observatory, Kitt Peak-Spacewatch MPS 310299
2010 02 15.22334 08 48 19.29 +12 34 37.0 20.2 V G96 – Mt. Lemmon Survey MPS 313498
2010 02 15.22994 08 48 18.90 +12 34 38.9 20.3 V G96 – Mt. Lemmon Survey MPS 313498
2010 02 15.23650 08 48 18.57 +12 34 40.4 20.2 V G96 – Mt. Lemmon Survey MPS 313498
2010 02 15.24308 08 48 18.18 +12 34 42.6 20.2 V G96 – Mt. Lemmon Survey MPS 313498
2010 04 28.076258 08 56 40.09 +14 31 00.9   C51 – WISE MPS 324937
2010 04 28.076385 08 56 40.06 +14 30 59.2   C51 – WISE MPS 324937
2010 04 28.208690 08 56 48.55 +14 30 39.3   C51 – WISE MPS 324937
2010 04 28.340994 08 56 56.98 +14 30 19.4   C51 – WISE MPS 324937
2010 04 28.473299 08 57 05.60 +14 29 57.6   C51 – WISE MPS 324937
2010 04 28.605603 08 57 14.102 +14 29 38.11   C51 – WISE MPS 903965
2010 04 28.671691 08 57 18.40 +14 29 27.0   C51 – WISE MPS 324937
2010 04 28.737907 08 57 22.69 +14 29 15.6   C51 – WISE MPS 324937
2010 04 28.803995 08 57 26.95 +14 29 07.7   C51 – WISE MPS 324937
2010 04 28.870212 08 57 31.24 +14 28 55.2   C51 – WISE MPS 324937
2010 04 28.936300 08 57 35.55 +14 28 44.7   C51 – WISE MPS 324937
2010 04 29.002515 08 57 39.84 +14 28 35.1   C51 – WISE MPS 324937
2010 04 29.068604 08 57 44.13 +14 28 23.7   C51 – WISE MPS 324937
2010 04 29.200909 08 57 52.80 +14 28 01.7   C51 – WISE MPS 324937
2010 04 29.33321 08 58 01.41 +14 27 41.0   C51 – WISE MPS 324937
2010 04 29.465517 08 58 10.07 +14 27 18.5   C51 – WISE MPS 324937
2010 04 29.465645 08 58 10.08 +14 27 18.7   C51 – WISE MPS 324937
2012 10 06.33654 01 30 14.65 +09 42 23.1 20.9 V G96 – Mt. Lemmon Survey MPS 434909
2012 10 06.34339 01 30 14.32 +09 42 20.4 21.6 V G96 – Mt. Lemmon Survey MPS 434909
2012 10 06.35020 01 30 13.96 +09 42 18.2 21.0 V G96 – Mt. Lemmon Survey MPS 434909
2012 10 06.35705 01 30 13.57 +09 42 15.1 20.7 V G96 – Mt. Lemmon Survey MPS 434909
2012 10 15.36868 01 22 29.28 +08 47 19.2 21.3 V G96 – Mt. Lemmon Survey MPS 437784
2012 10 15.37528 01 22 28.92 +08 47 17.3 20.9 V G96 – Mt. Lemmon Survey MPS 437784
2012 10 15.38185 01 22 28.59 +08 47 14.5 20.9 V G96 – Mt. Lemmon Survey MPS 437784
2012 10 15.38845 01 22 28.20 +08 47 12.3 20.8 V G96 – Mt. Lemmon Survey MPS 437784
2012 10 17.392884 01 20 43.896 +08 34 44.82 21.1 w F51 – Pan-STARRS 1, Haleakala MPS 437784
2012 10 17.406300 01 20 43.181 +08 34 39.78 21.1 w F51 – Pan-STARRS 1, Haleakala MPS 437784
2012 10 17.419733 01 20 42.464 +08 34 34.74 21.3 w F51 – Pan-STARRS 1, Haleakala MPS 437784
2012 10 17.433254 01 20 41.724 +08 34 29.79 21.2 w F51 – Pan-STARRS 1, Haleakala MPS 437784
2012 10 19.25421 01 19 07.35 +08 23 09.1 21.1 V G96 – Mt. Lemmon Survey MPS 437784
2012 10 19.25764 01 19 07.21 +08 23 07.7 20.9 V G96 – Mt. Lemmon Survey MPS 437784
2012 10 19.26101 01 19 07.03 +08 23 07.1 21.0 V G96 – Mt. Lemmon Survey MPS 437785
2012 10 19.26443 01 19 06.81 +08 23 05.5 21.4 V G96 – Mt. Lemmon Survey MPS 437785
2012 10 23.20396 01 15 46.08 +07 58 50.7 21.1 V G96 – Mt. Lemmon Survey MPS 439392
2012 10 23.20965 01 15 45.75 +07 58 49.0 21.1 V G96 – Mt. Lemmon Survey MPS 439392
2012 10 23.21537 01 15 45.46 +07 58 46.6 20.6 V G96 – Mt. Lemmon Survey MPS 439392
2012 10 23.22102 01 15 45.14 +07 58 44.5 20.7 V G96 – Mt. Lemmon Survey MPS 439392
2013 12 27.35434 08 46 33.42 +12 43 18.2 20.9 V G96 – Mt. Lemmon Survey MPS 493297
2013 12 27.36325 08 46 33.16 +12 43 17.8 20.8 V G96 – Mt. Lemmon Survey MPS 493297
2013 12 27.37213 08 46 32.87 +12 43 18.3 20.5 V G96 – Mt. Lemmon Survey MPS 493297
2013 12 27.38101 08 46 32.60 +12 43 18.4 20.8 V G96 – Mt. Lemmon Survey MPS 493297
2014 01 05.42714 08 41 06.689 +12 52 56.63 20.7 w F51 – Pan-STARRS 1, Haleakala MPS 496469
2014 01 05.44230 08 41 06.003 +12 52 58.48 20.6 w F51 – Pan-STARRS 1, Haleakala MPS 496469
2014 01 05.45742 08 41 05.321 +12 52 59.89 20.8 w F51 – Pan-STARRS 1, Haleakala MPS 496469
2014 01 05.47256 08 41 04.625 +12 53 01.39 20.7 w F51 – Pan-STARRS 1, Haleakala MPS 496469
2014 01 25.30969 08 23 25.911 +13 48 23.10 20.4 g F51 – Pan-STARRS 1, Haleakala MPS 500088
2014 01 25.33233 08 23 24.549 +13 48 28.11 20.4 g F51 – Pan-STARRS 1, Haleakala MPS 500088
2014 01 27.25828 08 21 30.16 +13 55 34.5 19.9 V 703 – Catalina Sky Survey MPS 500088
2014 01 27.26334 08 21 29.81 +13 55 35.7 20.3 V 703 – Catalina Sky Survey MPS 500088
2014 01 27.26840 08 21 29.56 +13 55 37.1 19.7 V 703 – Catalina Sky Survey MPS 500088
2014 01 27.27347 08 21 29.11 +13 55 38.9 19.8 V 703 – Catalina Sky Survey MPS 500088
2014 02 04.22440 08 13 47.41 +14 26 27.5 20.5 V G96 – Mt. Lemmon Survey MPS 500903
2014 02 04.22897 08 13 47.10 +14 26 28.3 20.6 V G96 – Mt. Lemmon Survey MPS 500903
2014 02 04.23352 08 13 46.88 +14 26 28.6 20.5 V G96 – Mt. Lemmon Survey MPS 500903
2014 02 23.25640 07 59 37.112 +15 37 56.41 20.7 w F51 – Pan-STARRS 1, Haleakala MPS 503814
